Regional Weather Roundup
Issued by NWS Austin/San Antonio, TX

Home | Current Version | Previous Version | Text Only | Print | Product List | Glossary On
Versions: 1 2 3 4 5 6 7 8 9 10 11 12 13 14 15 16 17 18 19 20 21 22 23 24 25 26 27 28 29 30 31 32 33 34 35 36 37 38 39 40 41 42 43 44 45 46 47 48 49 50
513
ASUS44 KEWX 191311
RWREWX
SOUTH TEXAS REGIONAL WEATHER ROUNDUP
NATIONAL WEATHER SERVICE AUSTIN/SAN ANTONIO TX
700 AM CST SUN JAN 19 2020

NOTE: "FAIR" INDICATED FEW OR NO CLOUDS BELOW 12,000 FEET WITH NO
SIGNIFICANT WEATHER AND/OR OBSTRUCTIONS TO VISIBILITY.

* - THESE STATIONS ARE NOT NWS OR FAA STATIONS...AND ARE NOT SUBJECT
    TO NWS AND FAA QUALITY CONTROL.

TXZ171-172-183>190-191400-
TEXAS HILL COUNTRY AND EDWARDS PLATEAU

CITY           SKY/WX    TMP DP  RH WIND       PRES   REMARKS
JUNCTION       CLEAR     32  28  85 CALM      30.49R
*LLANO         CLEAR     37  19  48 CALM      30.53R
BURNET         CLEAR     36  17  46 N12G18    30.48R WCI  28
*HORSESHOE BAY CLEAR     37  19  48 CALM      30.50R
*LAGO VISTA    CLEAR     35  20  55 NE13      30.45R WCI  26
*KERRVILLE     CLEAR     36  24  61 CALM      30.45R
*FREDERICKSBRG CLEAR     35  21  57 N8        30.45R WCI  28
*ROCKSPRINGS   PTCLDY    34  21  60 NE12      30.47R WCI  25
*BOERNE        CLEAR     36  21  55 CALM      30.45R
*CASTROVILLE   CLEAR     45  22  39 NE7       30.45R WCI  41
HONDO          CLEAR     41  24  51 NE13      30.43R WCI  34
*UVALDE        CLEAR     39  29  68 N6        30.45R WCI  35
DEL RIO        CLEAR     43  36  76 N6        30.46R WCI  39
*LAUGHLIN AFB  CLEAR     39  29  66 N7        30.46R WCI  34
*SPOFFORD      NOT AVBL
*EAGLE PASS    MOCLDY    41  34  75 NW6       30.46R WCI  37
CARRIZO SPRGS  CLOUDY    45  32  61 N6        30.44R WCI  41
*FAITH RANCH   CLOUDY    46  32  57 N8        30.45R WCI  42
$$

TXZ173-191>194-202-209-217>225-228-191400-
CENTRAL AND SOUTH CENTRAL TEXAS

CITY           SKY/WX    TMP DP  RH WIND       PRES   REMARKS
GEORGETOWN     CLEAR     37  20  50 N9        30.50R WCI  30
*TAYLOR        CLEAR     36  24  61 N13       30.49R WCI  27
AUSTIN/BERGSTM CLEAR     41  21  44 N16       30.47R WCI  33
AUSTIN/MABRY   CLEAR     41  19  41 N6G17     30.48R WCI  37
*PFLUGERVILLE  CLEAR     39  21  48 N17G23    30.48R WCI  30
SAN MARCOS     CLEAR     39  24  55 N12       30.47R WCI  32
NEW BRAUNFELS  CLEAR     41  23  48 N10       30.44R WCI  35
*RANDOLPH AFB  CLEAR     42  20  40 N14G20    30.43R WCI  35
*SEGUIN        CLEAR     41  21  45 N14       30.49R WCI  33
SAN ANTONIO    CLEAR     43  20  39 N15G22    30.43R WCI  36
STINSON FIELD  CLEAR     42  23  46 N9        30.43R WCI  37
*KELLY FIELD   CLEAR     43  22  43 N15       30.41R WCI  35
*PLEASANTON    CLEAR     43  23  45 NE9       30.44R WCI  37
*KENEDY        CLEAR     43  28  54 N12G17    30.43R WCI  37
*LA GRANGE     CLEAR     40  28  62 N9        30.43R WCI  34
*GIDDINGS      CLEAR     39  27  62 N9        30.45R WCI  33
*GONZALES      CLEAR     40  28  61 N7        30.44R WCI  35
$$

TXZ163>164-176>182-195>201-210>213-226-227-235-191400-
SOUTHEAST TEXAS

CITY           SKY/WX    TMP DP  RH WIND       PRES   REMARKS
COLLEGE STN    CLEAR     42  22  44 N14G23    30.45R WCI  35
*BRYAN         CLEAR     40  25  55 N8        30.48R WCI  34
*CALDWELL      CLEAR     36  26  65 N9        30.48R WCI  29
*CROCKETT      NOT AVBL
*BRENHAM       CLEAR     41  27  58 N9        30.46R WCI  35
HUNTSVILLE     CLEAR     37  26  64 VRB3      30.45R
CONROE         CLEAR     42  25  50 N8        30.43R WCI  37
HOUSTON BUSH   PTCLDY    44  25  47 N17G24    30.41R WCI  36
HOUSTON HOBBY  FAIR      47  28  47 NE17G25   30.38R WCI  40
*HOUSTON SW AP FAIR      45  29  53 NE13G18   30.39R WCI  39
PEARLAND       FAIR      47  28  47 N14       30.39R WCI  41
HOUSTON HOOKS  FAIR      43  24  47 N12G20    30.42R WCI  37
ELLINGTON FLD  PTCLDY    46  30  53 N12       30.39R WCI  41
SUGAR LAND     FAIR      46  31  55 N14       30.39R WCI  40
*HOUSTON EXEC  FAIR      39  34  81 N8        30.43R WCI  34
*CLEVELAND MUN FAIR      41  23  47 N5        30.43R WCI  38
*WHARTON       CLEAR     42  33  68 N10       30.40R WCI  36
*COLUMBUS      FAIR      39  23  52 N10G16    30.43R WCI  33
*EAGLE LAKE    CLEAR     43  32  66 N12       30.42  WCI  37
$$

TXZ214>216-236>238-191400-
THE UPPER TEXAS COAST

CITY           SKY/WX    TMP DP  RH WIND       PRES   REMARKS
*ORANGE        FAIR      46  28  49 N14G21    30.39R WCI  40
PORT ARTHUR    FAIR      46  29  51 N17       30.37R WCI  39
GALVESTON      FAIR      51  35  54 N30G37    30.36R
ANGLETON       FAIR      47  35  63 N13       30.37R WCI  41
*BAY CITY      CLEAR     49  40  69 N9G16     30.36R WCI  46
PALACIOS       CLEAR     47  38  71 N16       30.36R WCI  40
$$

TXZ229>234-239>247-191400-
TEXAS COASTAL BEND AND RIO GRANDE PLAINS

CITY           SKY/WX    TMP DP  RH WIND       PRES   REMARKS
VICTORIA       CLEAR     44  32  62 N12       30.40R WCI  38
*BEEVILLE      NOT AVBL
ROCKPORT       CLEAR     50  37  61 N18G24    30.37  WCI  44
*PORT ARANSAS  PTCLDY    51  42  70 N17       30.37R
*PORT LAVACA   CLEAR     47  39  72 N16G23    30.37R WCI  41
*INGLESIDE     CLEAR     49  41  73 N13       30.37R WCI  44
CORPUS CHRISTI PTCLDY    49  36  61 N20       30.37R WCI  42
CORPUS NAS     MOCLDY    51  42  71 N22       30.36R
*ROBSTOWN      MOCLDY    48  35  60 N13       30.39R WCI  42
ALICE          CLEAR     47  34  60 N12       30.38R WCI  42
KINGSVILLE NAS CLOUDY    51  36  56 N16       30.38R
COTULLA        MOCLDY    43  31  62 N5        30.44R WCI  40
LAREDO         PTCLDY    48  35  60 N7        30.43R WCI  45
$$

TXZ248>255-191400-
DEEP SOUTH TEXAS

CITY           SKY/WX    TMP DP  RH WIND       PRES   REMARKS
BROWNSVILLE    CLOUDY    60  52  74 N17G23    30.29R
PORT ISABEL    CLOUDY    60  52  74 N22G29    30.29R
HARLINGEN      MOCLDY    57  47  69 N15       30.32R
*HEBBRONVILLE  CLEAR     46  33  62 NE10      30.39R WCI  40
MCALLEN        CLOUDY    59  43  55 N14       30.34R
*WESLACO       CLOUDY    56  42  59 N16       30.33
FALFURRIAS     CLOUDY    55  36  50 N14G20    30.37R
EDINBURG       CLOUDY    55  40  56 N14G20    30.35R
*ZAPATA        FAIR      51  37  57 NW6       30.42R
$$

TXZ213>215-236>238-242>244-246-247-251-254-255-191400-
CMAN STATIONS

STATION/POSITION TIME  TEMP    WIND        PRES    WAVE
                       AIR SEA DIR/SP/G            HT/PER
                 (UTC) (F)     (DEG/KT/KT) (MB)    (FT/S)
SABINE PASS      1224   50 66   10/ 22/ 30 1029.4
SEA RIM ST PARK  1300   48      20/ 18/ 23 1027.9
NORTH JETTY/GLS  1224   50 62   20/ 26/ 29 1025.9
EAGLE POINT      1224   50 63   20/ 18/ 23 1027.4
MORGANS POINT    1224   48 63   20/ 14/ 20 1028.3
PORT O`CONNOR    1224   51 61   20/ 20/ 24 1027.7
PORT ARANSAS     1300   51 63  360/ 21/ 25 1027.7
MALAQUITE BEACH  1224   54 67  350/ 21/ 23 1027.0
BAFFIN BAY       1224   55 68  340/ 19/ 24 1027.4
PORT ISABEL      1224   62 71  360/ 19/ 25 1024.8
$$




USA.gov is the U.S. government's official web portal to all federal, state and local government web resources and services.